Tracking 29799 objects as of 11-Oct-2024
HD Live streaming from Space Station
objects crossing your sky now

STARLINK-30852

Track STARLINK-30852 now!
10-day predictions
STARLINK-30852 is classified as:


NORAD ID: 58373
Int'l Code: 2023-177Y
Perigee: 565.2 km
Apogee: 567.1 km
Inclination: 43.0 °
Period: 95.8 minutes
Semi major axis: 6937 km
RCS: Unknown
Launch date: November 18, 2023
Source: United States (US)
Launch site: AIR FORCE EASTERN TEST RANGE (AFETR)
Your satellite tracking list
Your tracking list is empty




NASA's NSSDC Master Catalog

Two Line Element Set (TLE):
1 58373U 23177Y   24285.22606967  .00005466  00000-0  41909-3 0  9992
2 58373  43.0021 267.2993 0001328 251.9557 108.1141 15.02563108 50826
Source of the keplerian elements: AFSPC